This demonstration page uses our WeatherBlox Daily Observations layout. Learn more.

Left ArrowRight Arrow

30.21309, -93.2044

Hourly Observations for March 13, 2015

Temp ( °F °C ) Dew Point ( °F °C ) Humidity (%) Winds ( mph kmh ) Pressure ( in mb ) Visibility ( mi km ) Precip ( " mm )
12:15 am 00:15 Mostly Cloudy 64 17.5 62 16.7 95 95 SSE 13 20 29.97 1015 10 16 0.00 0.00
12:35 am 00:35 Cloudy 64 17.5 62 16.6 95 95 SSE 14 22 29.97 1015 10 16 0.00 0.00
12:55 am 00:55 Cloudy 63 17.1 62 16.5 96 96 SSE 13 20 29.97 1015 10 16 0.00 0.00
1:15 am 01:15 Cloudy 63 17 61 16.3 96 96 SSE 12 19 29.97 1015 10 16 0.00 0.00
1:35 am 01:35 Cloudy 63 17 61 16.1 94 94 SSE 12 19 29.97 1015 10 16 0.00 0.00
1:55 am 01:55 Cloudy 62 16.7 61 16.1 96 96 S 10 17 29.97 1015 7 11 0.00 0.00
2:15 am 02:15 Cloudy with Mist and Fog 62 16.6 61 16.1 97 97 SSE 12 19 29.97 1015 5 8 0.00 0.00
2:35 am 02:35 Cloudy with Mist and Fog 62 16.5 61 16 97 97 SSE 12 19 29.97 1015 5 8 0.00 0.00
2:55 am 02:55 Cloudy with Mist and Fog 62 16.5 61 16.1 98 98 SSE 10 17 29.97 1015 4 6 0.00 0.00
3:15 am 03:15 Cloudy with Mist and Fog 62 16.5 61 16 97 97 S 14 22 29.97 1015 3 5 0.00 0.00
3:35 am 03:35 Cloudy with Rain 61 16.3 61 16 98 98 S 14 22 29.97 1015 3 4 0.00 0.00
3:55 am 03:55 Cloudy with Light Rain 61 16.3 61 15.9 98 98 S 10 17 29.97 1015 10 16 0.00 0.00
4:15 am 04:15 Cloudy with Rain 61 16.3 60 15.8 97 97 S 10 17 29.94 1014 10 16 0.01 0.25
4:35 am 04:35 Cloudy with Light Rain 61 16.2 60 15.7 97 97 S 7 11 29.94 1014 10 16 0.01 0.25
4:55 am 04:55 Cloudy with Light Rain 61 16.2 60 15.7 97 97 S 8 13 29.94 1014 10 16 0.01 0.25
5:15 am 05:15 Cloudy with Light Rain 61 16.1 60 15.6 97 97 S 6 9 29.94 1014 10 16 0.00 0.00
6:00 am 06:00 Cloudy 61 16 61 16 100 100 S 12 19 29.94 1014 10 16 0.00 0.00
6:55 am 06:55 Cloudy 61 16 61 16 100 100 S 12 19 29.94 1014 10 16 0.00 0.00
7:55 am 07:55 Cloudy with Mist and Fog 61 16 59 15 94 94 S 12 19 29.97 1015 4 6 0.00 0.00
8:50 am 08:50 Cloudy with Mist and Fog 61 16 59 15 94 94 S 12 19 29.97 1015 6 10 0.00 0.00
9:50 am 09:50 Cloudy 61 16 59 15 94 94 SSW 10 17 30.00 1016 10 16 0.00 0.00
10:50 am 10:50 Cloudy 63 17 59 15 88 88 S 8 13 30.00 1016 10 16 0.00 0.00
11:50 am 11:50 Cloudy 63 17 59 15 88 88 SSW 14 22 30.00 1016 10 16 0.00 0.00
12:50 pm 12:50 Cloudy 63 17 59 15 88 88 SSW 13 20 29.97 1015 10 16 0.00 0.00
1:50 pm 13:50 Cloudy 63 17 57 14 83 83 SSW 13 20 29.97 1015 10 16 0.00 0.00
2:50 pm 14:50 Cloudy 63 17 57 14 83 83 SW 12 19 29.94 1014 10 16 0.00 0.00
3:50 pm 15:50 Cloudy 63 17 57 14 83 83 SW 12 19 29.94 1014 10 16 0.00 0.00
4:50 pm 16:50 Cloudy 63 17 57 14 83 83 WSW 9 15 29.94 1014 10 16 0.00 0.00
6:50 pm 18:50 Cloudy 63 17 57 14 83 83 WSW 7 11 29.97 1015 10 16 0.00 0.00
8:50 pm 20:50 Cloudy 63 17 57 14 83 83 WSW 3 6 30.00 1016 10 16 0.00 0.00
9:50 pm 21:50 Cloudy 63 17 57 14 83 83 WSW 5 7 30.03 1017 10 16 0.00 0.00
10:15 pm 22:15 Cloudy 62 16.6 58 14.6 88 88 W 3 6 30.03 1017 10 16 0.00 0.00
10:35 pm 22:35 Cloudy 62 16.5 58 14.6 89 89 Calm 30.03 1017 10 16 0.00 0.00
10:55 pm 22:55 Cloudy 62 16.6 58 14.5 88 88 Calm 30.03 1017 10 16 0.00 0.00
11:15 pm 23:15 Cloudy 62 16.7 58 14.5 87 87 W 3 6 30.03 1017 10 16 0.00 0.00
11:35 pm 23:35 Cloudy 62 16.7 58 14.3 86 86 W 3 6 30.03 1017 10 16 0.00 0.00
11:55 pm 23:55 Cloudy 62 16.7 58 14.2 85 85 SW 6 9 30.03 1017 10 16 0.00 0.00

Powered by AerisWeather